Location: Grand Rapids
(42.9630°N, 85.6680°W)
Time: 01:28:27
(UTC-04:00)

Envisat - Visible Passes

Search period start: 17 April 2024 00:00
Search period end: 27 April 2024 00:00
Orbit: 762 x 764 km, 98.3° (Epoch: 16 April)

Date Brightness Start Highest point End Pass type
(mag) Time Alt. Az. Time Alt. Az. Time Alt. Az.
17 Apr 5.7 03:37:17 10° ENE 03:38:44 11° E 03:40:12 10° ESE visible
17 Apr 2.9 05:13:15 10° NNE 05:18:21 86° WNW 05:22:03 19° SSW visible
18 Apr 4.0 04:36:08 10° NNE 04:40:58 43° E 04:44:23 18° SSE visible
18 Apr 4.2 06:15:38 10° NNW 06:19:41 25° WNW 06:23:44 10° WSW visible
19 Apr 5.2 03:59:44 10° NE 04:03:22 20° E 04:06:43 11° SE visible
19 Apr 3.2 05:37:42 10° N 05:42:38 51° WNW 05:46:53 14° SW visible
20 Apr 3.1 05:00:17 10° NNE 05:05:22 73° ESE 05:09:13 18° S visible
21 Apr 4.4 04:23:21 10° NNE 04:27:54 32° E 04:31:33 14° SSE visible
21 Apr 3.9 06:02:22 10° N 06:06:48 31° WNW 06:11:13 10° SW visible
22 Apr 5.5 03:47:25 10° NE 03:50:14 15° E 03:53:02 10° ESE visible
22 Apr 3.0 05:24:37 10° N 05:29:41 68° WNW 05:34:02 14° SSW visible
23 Apr 3.6 04:47:21 10° NNE 04:52:20 55° E 04:56:22 15° S visible
24 Apr 4.9 04:10:39 10° NE 04:14:49 25° E 04:18:41 11° SSE visible
24 Apr 3.6 05:49:10 10° N 05:53:53 40° WNW 05:58:36 10° SW visible
25 Apr 5.7 03:35:46 10° ENE 03:37:03 11° E 03:38:20 10° ESE visible
25 Apr 2.9 05:11:35 10° NNE 05:16:41 88° WNW 05:21:10 13° SSW visible
26 Apr 4.0 04:34:28 10° NNE 04:39:17 42° E 04:43:28 13° SSE visible
